Weather in Nida

Russia / Yamalo-Nenets Autonomous Okrug     66°37′45″N   72°55′25″E
temp.,
°C
wind,
m/s
gust,
m/s
humid.,
%
clouds,
%
prec.,
mm/h
press.,
hPa
HPBL,
m
27 february, sat
sat2723:00−22wsw229999 0.1 102320
02:00−24wsw2210097 0.0 102220
05:00−25wsw2210098 0.1 102320
08:00−26sw11100100 0.0 102319
11:00−25ssw229795 0.0 102319
14:00−25s229529 0.0 102419
17:00−27s239715 0.0 102419
20:00−27sse349570 0.0 102427
28 february, sun
sun2823:00−27s459749 0.0 102433
02:00−28s449833 0.0 102337
05:00−27s459747 0.0 102460
08:00−27sse569784 0.0 102380
11:00−26s589586 0.0 1023171
14:00−24s579412 0.0 1023172
17:00−25s55956 0.0 102365
20:00−26s58950 0.0 102288
1 march, mon
mon123:00−26s589438 0.0 1022114
02:00−27s589481 0.0 1022118
05:00−26ssw6109281 0.0 1021159
08:00−26s61191100 0.0 1020198
11:00−25s71289100 0.0 1019258
14:00−23ssw71288100 0.0 1017306
17:00−23s7129275 0.0 1016213
20:00−24s7139057 0.0 1015227
2 march, tue
tue223:00−24s8148835 0.0 1013235
02:00−25s8138581 0.0 1012236
05:00−24s9168490 0.0 1011266
08:00−23s101683100 0.0 1010285
11:00−22s111782100 0.0 1010361
14:00−19s101681100 0.0 1009429
17:00−19s101681100 0.0 1009399
20:00−19s101683100 0.0 1009368
3 march, wed
wed323:00−21s91684100 0.0 1009339
02:00−21s91588100 0.0 1009330
05:00−21s91491100 0.0 1009313
08:00−21s91492100 0.0 1008318
11:00−20s101592100 0.0 1009400
14:00−18s101690100 0.0 1009451
17:00−18s91591100 0.0 1008406
20:00−19s91591100 0.0 1008391